Content
SEND FEEDBACK

United Kingdom Flag

LONDON, ENGLAND


Home > Europe > United Kingdom > England
Elevation: 203 feet     Latitude: 51 09N     Longitude: 000 11W

WEATHER
 
SELECT A DAY
Number of Records: 319,713;   Date Range: 7/1/96 - 3/22/16
 
SHARE

PRINT THIS DATA

[ ← Previous Day ]
WEATHER ALMANAC - OCTOBER 24, 2013
[ Next Day → ]
[ °C ]   °F
We're sorry. There is no daily almanac available for London, England on October 24, 2013.
WEATHER BY HOUR - OCTOBER 24, 2013
[ °C ]   °F
Local TimeTemperatureDewpointHumidityBarometerVisibilityWind DirectionWind SpeedGust SpeedPrecipitationEventsConditions
12:50 AM42.8 °F42.8 °F100 %29.89 inVariable2.3 mphClear
1:20 AM42.8 °F42.8 °F100 %29.89 in5.6 miVariable2.3 mphFogFog
1:50 AM41.0 °F41.0 °F100 %29.92 in5.0 miWSW (240°)2.3 mph
2:20 AM41.0 °F41.0 °F100 %29.92 in5.0 miCalm
2:50 AM41.0 °F41.0 °F100 %29.92 in5.0 miCalm
3:20 AM41.0 °F41.0 °F100 %29.92 in5.0 miCalm
3:50 AM41.0 °F41.0 °F100 %29.92 in5.0 miCalm
4:20 AM39.2 °F39.2 °F100 %29.92 in5.0 miEast (80°)3.5 mph
4:50 AM39.2 °F39.2 °F100 %29.92 in3.1 miCalmMist
5:20 AM39.2 °F39.2 °F100 %29.92 in3.1 miCalmMist
5:50 AM39.2 °F39.2 °F100 %29.95 in2.8 miEast (80°)5.8 mphFogPartly Cloudy
6:20 AM39.2 °F39.2 °F100 %29.95 in2.8 miEast (90°)4.6 mphFogPartly Cloudy
6:50 AM39.2 °F39.2 °F100 %29.95 in2.5 miENE (70°)3.5 mphFogPartly Cloudy
7:20 AM39.2 °F39.2 °F100 %29.95 in6.2 miEast (90°)2.3 mph
7:50 AM39.2 °F39.2 °F100 %29.98 in6.2 miCalm
8:20 AM39.2 °F39.2 °F100 %29.98 in6.2 miEast (80°)3.5 mphPartly Cloudy
8:50 AM41.0 °F41.0 °F100 %29.98 in6.2 miEast (80°)4.6 mphFogPatches of Fog
9:20 AM42.8 °F42.8 °F100 %30.01 in6.2 miEast (80°)2.3 mphPartly Cloudy
9:50 AM46.4 °F44.6 °F93 %29.98 inEast (80°)3.5 mphClear
10:20 AM48.2 °F46.4 °F93 %29.98 inVariable3.5 mphClear
10:50 AM51.8 °F48.2 °F88 %29.98 inVariable2.3 mphClear
11:20 AM55.4 °F50.0 °F82 %29.98 in6.2 miVariable2.3 mphPartly Cloudy
11:50 AM59.0 °F53.6 °F82 %29.98 in6.2 miESE (110°)4.6 mphPartly Cloudy
12:20 PM60.8 °F53.6 °F77 %29.98 in6.2 miSSE (150°)6.9 mphPartly Cloudy
12:50 PM60.8 °F51.8 °F72 %29.98 in6.2 miSSE (160°)6.9 mphPartly Cloudy
1:20 PM59.0 °F53.6 °F82 %29.98 in6.2 miSSE (160°)8.1 mphScattered Clouds
1:50 PM60.8 °F53.6 °F77 %29.95 in6.2 miSSE (150°)6.9 mphScattered Clouds
2:20 PM62.6 °F51.8 °F68 %29.95 in6.2 miSSE (160°)8.1 mphPartly Cloudy
2:50 PM60.8 °F51.8 °F72 %29.95 in6.2 miSE (130°)8.1 mphScattered Clouds
3:20 PM60.8 °F51.8 °F72 %29.92 in6.2 miESE (120°)8.1 mphPartly Cloudy
3:50 PM60.8 °F51.8 °F72 %29.95 in6.2 miSSE (150°)6.9 mphPartly Cloudy
4:20 PM59.0 °F53.6 °F82 %29.95 in6.2 miSE (130°)8.1 mphScattered Clouds
4:50 PM57.2 °F51.8 °F82 %29.92 in6.2 miSE (130°)8.1 mphScattered Clouds
5:20 PM57.2 °F51.8 °F82 %29.92 in6.2 miEast (100°)8.1 mphScattered Clouds
5:50 PM57.2 °F53.6 °F88 %29.92 in6.2 miESE (120°)5.8 mphMostly Cloudy
6:20 PM57.2 °F53.6 °F88 %29.92 in6.2 miEast (90°)5.8 mphMostly Cloudy
6:50 PM57.2 °F53.6 °F88 %29.92 in6.2 miESE (110°)6.9 mphMostly Cloudy
7:20 PM55.4 °F53.6 °F94 %29.92 in6.2 miEast (90°)6.9 mphScattered Clouds
7:50 PM55.4 °F53.6 °F94 %29.89 inEast (100°)5.8 mphClear
8:20 PM53.6 °F51.8 °F94 %29.89 inEast (90°)8.1 mphClear
8:50 PM53.6 °F51.8 °F94 %29.89 in6.2 miEast (90°)6.9 mphPartly Cloudy
9:20 PM55.4 °F53.6 °F94 %29.86 in6.2 miEast (80°)6.9 mphMostly Cloudy
9:50 PM53.6 °F51.8 °F94 %29.86 in6.2 miENE (70°)8.1 mphMostly Cloudy
10:20 PM55.4 °F53.6 °F94 %29.83 in6.2 miEast (100°)8.1 mphMostly Cloudy
10:50 PM55.4 °F53.6 °F94 %29.83 in6.2 miEast (90°)4.6 mphMostly Cloudy
11:20 PM57.2 °F53.6 °F88 %29.83 in6.2 miESE (120°)6.9 mphMostly Cloudy
11:50 PM57.2 °F53.6 °F88 %29.83 in6.2 miEast (100°)8.1 mphMostly Cloudy
Hourly data recorded from EGKK, located miles away from London, England




STORIES FROM OUR PARTNERS